Location: Unspecified
(0.0000°N, 0.0000°E)
Time: 20:17:57
(UTC+00:00)

COSMOS 1275 DEB - Visible Passes

Search period start: 10 April 2026 00:00
Search period end: 20 April 2026 00:00
Orbit: 876 x 988 km, 83.0° (Epoch: 5 April)

Date Brightness Start Highest point End Pass type
(mag) Time Alt. Az. Time Alt. Az. Time Alt. Az.
10 Apr ? 04:57:23 10° NNE 05:02:36 33° E 05:07:57 10° SSE visible
11 Apr ? 05:08:59 10° N 05:14:43 54° E 05:20:38 10° SSE visible
12 Apr ? 05:20:55 10° N 05:26:50 87° E 05:32:57 10° S visible
12 Apr ? 18:21:17 10° SW 18:25:28 19° W 18:29:36 10° NW visible
13 Apr ? 05:33:10 10° NNW 05:38:58 58° W 05:44:58 10° S visible
13 Apr ? 18:35:52 10° WSW 18:37:34 11° W 18:39:15 10° WNW visible
14 Apr ? 04:03:28 10° NE 04:07:03 16° E 04:10:40 10° SE visible
15 Apr ? 04:14:13 10° NNE 04:19:08 27° E 04:24:09 10° SE visible
16 Apr ? 04:25:36 10° NNE 04:31:14 43° E 04:37:00 10° SSE visible
17 Apr ? 04:37:23 10° N 04:43:19 71° E 04:49:28 10° S visible
18 Apr ? 04:49:27 10° N 04:55:25 74° W 05:01:36 10° S visible
19 Apr ? 03:20:55 10° ENE 03:23:30 13° E 03:26:06 10° ESE visible
19 Apr ? 05:01:50 10° NNW 05:07:32 45° W 05:13:25 10° SSW visible
